Погода в Ягодном

Россия / Республика Бурятия     51°24′07″N   106°30′28″E
темп.,
°C
ветер,
м/с
пор.,
м/с
влажн.,
%
обл.,
%
осадки,
мм/ч
давл.,
гПа
погр.,
м
19 апреля, пн
пн1923:00−4всв115197 0.0 102212
02:00−5всв11485 0.0 102110
05:00−6ююв004758 0.0 102110
08:00−2юв22348 0.0 1020263
11:00+4ююв34287 0.0 1016697
14:00+7ю352914 0.0 1012810
17:00+10ю37318 0.0 1007983
20:00+4ссв115011 0.0 100610
20 апреля, вт
вт2023:00+3сз1154100 0.0 100510
02:00+2з11575 0.0 100410
05:00−3сз5128750 0.0 1011489
08:00−1ссз5107194 0.1 1013818
11:00+2ссз35529 0.0 1012803
14:00+4ссз4443100 0.0 10101021
17:00+4ссз454418 0.0 1009846
20:00−1ссз3462100 0.0 1012241
21 апреля, ср
ср2123:00−4сз3377100 0.0 1013106
02:00−4сз478661 0.1 1014439
05:00−5сз3788100 0.1 1015457
08:00−4ссз4970100 0.1 1017745
11:00−2ссз4760100 0.1 1017968
14:000ссз6955100 0.1 10171119
17:00−2ссз696299 0.1 10181027
20:00−4ссз4117553 0.6 1021953
22 апреля, чт
чт2223:00−5ссз3791100 0.0 1024368
02:00−5сз2882100 0.4 1025826
05:00−5сз2483100 0.0 1027278
08:00−3ссз2461100 0.0 1028543
11:00+1с3337100 0.0 10261189
14:00+3с3338100 0.0 10241492
17:00−1ссз4669100 0.1 1027693
20:00−5сз4684100 0.6 1031370
23 апреля, пт
пт2323:00−5сз3584100 1.7 1034301
02:00−6сз3587100 1.7 1036211
05:00−6сз3591100 0.0 1038218
08:00−3ссз3869100 0.0 1038608
11:00+1ссз4655100 0.0 10381068
14:00+2ссз674893 0.0 10381278
17:00+2с5753100 0.0 10391215
20:00−2сз3383100 0.0 104256